Time,TemperatureF,DewpointF,PressureIn,WindDirection,WindDirectionDegrees,WindSpeedMPH,WindSpeedGustMPH,Humidity,HourlyPrecipIn,Conditions,Clouds,dailyrainin,SoftwareType,DateUTC
2013-07-18 00:02:00,75.4,74.1,30.08,East,87,1.0,9.0,96,0.00,,,0.00,meteohub,2013-07-18 04:02:00,
2013-07-18 00:03:00,75.4,74.1,30.08,East,89,5.0,9.0,96,0.00,,,0.00,meteohub,2013-07-18 04:03:00,
2013-07-18 00:06:00,75.4,74.1,30.08,East,86,0.0,9.0,96,0.00,,,0.00,meteohub,2013-07-18 04:06:00,
2013-07-18 00:09:00,75.4,74.1,30.08,East,86,0.0,9.0,96,0.00,,,0.00,meteohub,2013-07-18 04:09:00,
2013-07-18 00:12:00,75.4,73.8,30.08,East,91,0.0,9.0,95,0.00,,,0.00,meteohub,2013-07-18 04:12:00,
2013-07-18 00:17:00,75.4,73.8,30.07,East,93,0.0,9.0,95,0.00,,,0.00,meteohub,2013-07-18 04:17:00,
2013-07-18 00:22:00,75.4,73.8,30.07,East,100,5.0,7.0,95,0.00,,,0.00,meteohub,2013-07-18 04:22:00,
2013-07-18 00:27:00,75.4,73.8,30.07,East,93,3.0,7.0,95,0.00,,,0.00,meteohub,2013-07-18 04:27:00,
2013-07-18 00:32:00,75.4,73.8,30.07,ESE,102,1.0,8.0,95,0.00,,,0.00,meteohub,2013-07-18 04:32:00,
2013-07-18 00:37:00,75.4,73.8,30.07,East,99,0.0,8.0,95,0.00,,,0.00,meteohub,2013-07-18 04:37:00,
2013-07-18 00:42:00,75.2,73.6,30.06,ESE,110,0.0,8.0,95,0.00,,,0.00,meteohub,2013-07-18 04:42:00,
2013-07-18 00:47:00,75.2,73.4,30.07,ESE,109,0.0,8.0,94,0.00,,,0.00,meteohub,2013-07-18 04:47:00,
2013-07-18 00:52:00,75.2,73.0,30.07,ESE,107,0.0,8.0,93,0.00,,,0.00,meteohub,2013-07-18 04:52:00,
2013-07-18 00:57:00,75.4,73.2,30.07,ESE,107,0.0,7.0,93,0.00,,,0.00,meteohub,2013-07-18 04:57:00,
2013-07-18 01:02:00,75.2,72.7,30.06,East,98,3.0,7.0,92,0.00,,,0.00,meteohub,2013-07-18 05:02:00,
2013-07-18 01:07:00,75.4,72.9,30.06,East,99,3.0,7.0,92,0.00,,,0.00,meteohub,2013-07-18 05:07:00,
2013-07-18 01:12:00,75.2,72.3,30.06,East,95,0.0,7.0,91,0.00,,,0.00,meteohub,2013-07-18 05:12:00,
2013-07-18 01:17:00,75.2,72.3,30.06,ESE,106,0.0,7.0,91,0.00,,,0.00,meteohub,2013-07-18 05:17:00,
2013-07-18 01:22:00,75.2,72.1,30.06,ESE,117,0.0,6.0,90,0.00,,,0.00,meteohub,2013-07-18 05:22:00,
2013-07-18 01:27:00,75.0,72.0,30.06,SE,127,0.0,5.0,90,0.00,,,0.00,meteohub,2013-07-18 05:27:00,
2013-07-18 01:33:00,75.0,72.0,30.06,SE,127,0.0,4.0,90,0.00,,,0.00,meteohub,2013-07-18 05:33:00,
2013-07-18 01:39:00,74.8,71.8,30.06,SE,127,2.0,4.0,90,0.00,,,0.00,meteohub,2013-07-18 05:39:00,
2013-07-18 01:45:00,74.7,71.8,30.06,SE,127,0.0,2.0,91,0.00,,,0.00,meteohub,2013-07-18 05:45:00,
2013-07-18 01:51:00,74.7,71.8,30.06,SE,126,0.0,2.0,91,0.00,,,0.00,meteohub,2013-07-18 05:51:00,
2013-07-18 01:57:00,74.5,71.6,30.06,SE,127,0.0,1.0,91,0.00,,,0.00,meteohub,2013-07-18 05:57:00,
2013-07-18 02:02:00,74.5,71.4,30.06,SE,127,0.0,1.0,90,0.00,,,0.00,meteohub,2013-07-18 06:02:00,
2013-07-18 02:07:00,74.1,71.2,30.06,East,79,0.0,1.0,91,0.00,,,0.00,meteohub,2013-07-18 06:07:00,
2013-07-18 02:12:00,74.1,71.6,30.07,ENE,74,2.0,3.0,92,0.00,,,0.00,meteohub,2013-07-18 06:12:00,
2013-07-18 02:17:00,73.9,71.4,30.06,ENE,68,0.0,3.0,92,0.00,,,0.00,meteohub,2013-07-18 06:17:00,
2013-07-18 02:22:00,73.8,71.6,30.06,ENE,69,0.0,4.0,93,0.00,,,0.00,meteohub,2013-07-18 06:22:00,
2013-07-18 02:27:00,73.8,71.6,30.06,ENE,70,0.0,4.0,93,0.00,,,0.00,meteohub,2013-07-18 06:27:00,
2013-07-18 02:32:00,73.8,71.6,30.06,ENE,77,0.0,5.0,93,0.00,,,0.00,meteohub,2013-07-18 06:32:00,
2013-07-18 02:37:00,73.8,71.6,30.06,ENE,73,0.0,5.0,93,0.00,,,0.00,meteohub,2013-07-18 06:37:00,
2013-07-18 02:42:00,73.8,71.6,30.06,East,80,0.0,5.0,93,0.00,,,0.00,meteohub,2013-07-18 06:42:00,
2013-07-18 02:47:00,73.6,71.4,30.06,ENE,72,0.0,5.0,93,0.00,,,0.00,meteohub,2013-07-18 06:47:00,
2013-07-18 02:52:00,73.6,71.8,30.06,ENE,72,0.0,4.0,94,0.00,,,0.00,meteohub,2013-07-18 06:52:00,
2013-07-18 02:57:00,73.6,71.8,30.06,ENE,73,0.0,4.0,94,0.00,,,0.00,meteohub,2013-07-18 06:57:00,
2013-07-18 03:02:00,73.6,71.8,30.06,ENE,73,0.0,4.0,94,0.00,,,0.00,meteohub,2013-07-18 07:02:00,
2013-07-18 03:07:00,73.6,71.8,30.06,ENE,73,0.0,4.0,94,0.00,,,0.00,meteohub,2013-07-18 07:07:00,
2013-07-18 03:12:00,73.6,71.8,30.06,ENE,73,0.0,5.0,94,0.00,,,0.00,meteohub,2013-07-18 07:12:00,
2013-07-18 03:17:00,73.6,71.4,30.05,ENE,73,0.0,5.0,93,0.00,,,0.00,meteohub,2013-07-18 07:17:00,
2013-07-18 03:22:00,73.4,71.2,30.05,East,81,0.0,6.0,93,0.00,,,0.00,meteohub,2013-07-18 07:22:00,
2013-07-18 03:27:00,73.6,71.4,30.05,East,79,5.0,7.0,93,0.00,,,0.00,meteohub,2013-07-18 07:27:00,
2013-07-18 03:32:00,73.6,71.4,30.05,East,87,5.0,7.0,93,0.00,,,0.00,meteohub,2013-07-18 07:32:00,
2013-07-18 03:37:00,73.6,71.4,30.05,East,79,0.0,7.0,93,0.00,,,0.00,meteohub,2013-07-18 07:37:00,
2013-07-18 03:42:00,73.4,71.2,30.05,East,79,0.0,7.0,93,0.00,,,0.00,meteohub,2013-07-18 07:42:00,
2013-07-18 03:47:00,73.6,71.4,30.05,East,80,0.0,7.0,93,0.00,,,0.00,meteohub,2013-07-18 07:47:00,
2013-07-18 03:52:00,73.6,71.4,30.05,East,80,0.0,5.0,93,0.00,,,0.00,meteohub,2013-07-18 07:52:00,
2013-07-18 03:57:00,73.4,71.2,30.05,ENE,68,0.0,5.0,93,0.00,,,0.00,meteohub,2013-07-18 07:57:00,
2013-07-18 04:02:00,73.2,71.1,30.05,ENE,69,0.0,1.0,93,0.00,,,0.00,meteohub,2013-07-18 08:02:00,
2013-07-18 04:07:00,73.2,71.1,30.05,ENE,69,0.0,1.0,93,0.00,,,0.00,meteohub,2013-07-18 08:07:00,
2013-07-18 04:12:00,73.2,71.4,30.04,ENE,75,0.0,1.0,94,0.00,,,0.00,meteohub,2013-07-18 08:12:00,
2013-07-18 04:17:00,73.2,71.4,30.04,East,100,3.0,4.0,94,0.00,,,0.00,meteohub,2013-07-18 08:17:00,
2013-07-18 04:22:00,73.2,71.4,30.04,East,80,3.0,4.0,94,0.00,,,0.00,meteohub,2013-07-18 08:22:00,
2013-07-18 04:27:00,73.2,71.4,30.04,East,81,5.0,5.0,94,0.00,,,0.00,meteohub,2013-07-18 08:27:00,
2013-07-18 04:32:00,73.2,71.4,30.04,East,80,5.0,7.0,94,0.00,,,0.00,meteohub,2013-07-18 08:32:00,
2013-07-18 04:37:00,73.0,71.2,30.04,ENE,74,2.0,7.0,94,0.00,,,0.00,meteohub,2013-07-18 08:37:00,
2013-07-18 04:42:00,73.0,71.2,30.04,ENE,72,2.0,7.0,94,0.00,,,0.00,meteohub,2013-07-18 08:42:00,
2013-07-18 04:47:00,73.0,71.6,30.04,East,83,5.0,6.0,95,0.00,,,0.00,meteohub,2013-07-18 08:47:00,
2013-07-18 04:52:00,73.2,71.4,30.04,East,85,0.0,8.0,94,0.00,,,0.00,meteohub,2013-07-18 08:52:00,
2013-07-18 04:57:00,73.2,71.4,30.04,East,85,0.0,8.0,94,0.00,,,0.00,meteohub,2013-07-18 08:57:00,
2013-07-18 05:02:00,73.2,71.8,30.04,East,85,0.0,8.0,95,0.00,,,0.00,meteohub,2013-07-18 09:02:00,
2013-07-18 05:07:00,73.2,71.8,30.04,East,87,5.0,5.0,95,0.00,,,0.00,meteohub,2013-07-18 09:07:00,
2013-07-18 05:12:00,73.4,72.0,30.04,East,88,3.0,6.0,95,0.00,,,0.00,meteohub,2013-07-18 09:12:00,
2013-07-18 05:17:00,73.4,71.6,30.04,East,88,0.0,6.0,94,0.00,,,0.00,meteohub,2013-07-18 09:17:00,
2013-07-18 05:22:00,73.4,72.0,30.04,East,88,0.0,6.0,95,0.00,,,0.00,meteohub,2013-07-18 09:22:00,
2013-07-18 05:27:00,73.6,72.1,30.04,East,88,0.0,6.0,95,0.00,,,0.00,meteohub,2013-07-18 09:27:00,
2013-07-18 05:32:00,73.6,72.1,30.05,East,89,0.0,2.0,95,0.00,,,0.00,meteohub,2013-07-18 09:32:00,
2013-07-18 05:37:00,73.6,72.1,30.05,East,89,0.0,2.0,95,0.00,,,0.00,meteohub,2013-07-18 09:37:00,
2013-07-18 05:42:00,73.6,72.1,30.05,East,89,0.0,2.0,95,0.00,,,0.00,meteohub,2013-07-18 09:42:00,
2013-07-18 05:47:00,73.8,72.3,30.05,ENE,73,0.0,3.0,95,0.00,,,0.00,meteohub,2013-07-18 09:47:00,
2013-07-18 05:52:00,73.8,72.3,30.05,ENE,74,0.0,3.0,95,0.00,,,0.00,meteohub,2013-07-18 09:52:00,
2013-07-18 05:57:00,73.6,72.1,30.05,ENE,73,0.0,2.0,95,0.00,,,0.00,meteohub,2013-07-18 09:57:00,
2013-07-18 06:02:00,73.6,72.1,30.05,ENE,74,0.0,1.0,95,0.00,,,0.00,meteohub,2013-07-18 10:02:00,
2013-07-18 06:07:00,73.6,72.1,30.05,ENE,66,3.0,3.0,95,0.00,,,0.00,meteohub,2013-07-18 10:07:00,
2013-07-18 06:12:00,73.6,72.1,30.05,ENE,62,4.0,4.0,95,0.00,,,0.00,meteohub,2013-07-18 10:12:00,
2013-07-18 06:17:00,73.4,72.0,30.05,ENE,62,2.0,5.0,95,0.00,,,0.00,meteohub,2013-07-18 10:17:00,
2013-07-18 06:22:00,73.4,72.0,30.05,ENE,73,3.0,5.0,95,0.00,,,0.00,meteohub,2013-07-18 10:22:00,
2013-07-18 06:27:00,73.4,72.0,30.05,ENE,74,3.0,5.0,95,0.00,,,0.00,meteohub,2013-07-18 10:27:00,
2013-07-18 06:32:00,73.4,72.0,30.05,East,80,6.0,6.0,95,0.00,,,0.00,meteohub,2013-07-18 10:32:00,
2013-07-18 06:37:00,73.2,71.8,30.05,East,79,6.0,7.0,95,0.00,,,0.00,meteohub,2013-07-18 10:37:00,
2013-07-18 06:42:00,73.4,72.1,30.05,East,93,3.0,7.0,96,0.00,,,0.00,meteohub,2013-07-18 10:42:00,
2013-07-18 06:47:00,73.4,72.1,30.05,East,86,6.0,7.0,96,0.00,,,0.00,meteohub,2013-07-18 10:47:00,
2013-07-18 06:52:00,73.4,72.0,30.06,East,83,0.0,7.0,95,0.00,,,0.00,meteohub,2013-07-18 10:52:00,
2013-07-18 06:57:00,73.6,72.1,30.06,East,83,0.0,7.0,95,0.00,,,0.00,meteohub,2013-07-18 10:57:00,
2013-07-18 07:02:00,73.6,72.1,30.06,East,83,0.0,7.0,95,0.00,,,0.00,meteohub,2013-07-18 11:02:00,
2013-07-18 07:07:00,73.6,72.1,30.06,ENE,73,2.0,5.0,95,0.00,,,0.00,meteohub,2013-07-18 11:07:00,
2013-07-18 07:12:00,73.6,72.3,30.06,ENE,75,0.0,5.0,96,0.00,,,0.00,meteohub,2013-07-18 11:12:00,
2013-07-18 07:17:00,73.8,72.5,30.06,ENE,76,1.0,3.0,96,0.00,,,0.00,meteohub,2013-07-18 11:17:00,
2013-07-18 07:22:00,73.9,72.7,30.06,East,93,3.0,5.0,96,0.00,,,0.00,meteohub,2013-07-18 11:22:00,
2013-07-18 07:27:00,74.1,72.9,30.06,ESE,106,4.0,5.0,96,0.00,,,0.00,meteohub,2013-07-18 11:27:00,
2013-07-18 07:32:00,74.5,73.2,30.06,East,93,3.0,7.0,96,0.00,,,0.00,meteohub,2013-07-18 11:32:00,
2013-07-18 07:37:00,74.7,73.2,30.06,East,96,3.0,7.0,95,0.00,,,0.00,meteohub,2013-07-18 11:37:00,
2013-07-18 07:42:00,75.0,73.4,30.06,East,100,1.0,9.0,95,0.00,,,0.00,meteohub,2013-07-18 11:42:00,
2013-07-18 07:47:00,75.0,73.2,30.06,ESE,103,7.0,9.0,94,0.00,,,0.00,meteohub,2013-07-18 11:47:00,
2013-07-18 07:52:00,75.4,73.6,30.06,East,93,5.0,9.0,94,0.00,,,0.00,meteohub,2013-07-18 11:52:00,
2013-07-18 07:57:00,75.6,73.8,30.06,ESE,110,7.0,9.0,94,0.00,,,0.00,meteohub,2013-07-18 11:57:00,
2013-07-18 08:02:00,75.9,73.8,30.06,East,100,6.0,9.0,93,0.00,,,0.00,meteohub,2013-07-18 12:02:00,
2013-07-18 08:07:00,76.3,74.1,30.06,ESE,107,2.0,9.0,93,0.00,,,0.00,meteohub,2013-07-18 12:07:00,
2013-07-18 08:12:00,76.5,73.9,30.06,ESE,110,7.0,9.0,92,0.00,,,0.00,meteohub,2013-07-18 12:12:00,
2013-07-18 08:17:00,76.5,73.9,30.06,SE,144,6.0,11.0,92,0.00,,,0.00,meteohub,2013-07-18 12:17:00,
2013-07-18 08:22:00,76.6,74.1,30.06,East,99,3.0,11.0,92,0.00,,,0.00,meteohub,2013-07-18 12:22:00,
2013-07-18 08:29:00,76.8,74.3,30.07,East,95,8.0,11.0,92,0.00,,,0.00,meteohub,2013-07-18 12:29:00,
2013-07-18 08:35:00,76.8,73.9,30.07,SE,127,0.0,11.0,91,0.00,,,0.00,meteohub,2013-07-18 12:35:00,
2013-07-18 08:41:00,76.6,73.8,30.07,ESE,120,8.0,11.0,91,0.00,,,0.00,meteohub,2013-07-18 12:41:00,
2013-07-18 08:47:00,76.8,73.9,30.07,ESE,108,0.0,9.0,91,0.00,,,0.00,meteohub,2013-07-18 12:47:00,
2013-07-18 08:52:00,76.8,73.9,30.08,East,87,2.0,8.0,91,0.00,,,0.00,meteohub,2013-07-18 12:52:00,
2013-07-18 08:57:00,76.8,73.9,30.08,ESE,115,0.0,8.0,91,0.00,,,0.00,meteohub,2013-07-18 12:57:00,
2013-07-18 09:02:00,77.0,74.1,30.08,ESE,112,0.0,7.0,91,0.00,,,0.00,meteohub,2013-07-18 13:02:00,
2013-07-18 09:07:00,77.2,74.3,30.08,East,81,7.0,7.0,91,0.00,,,0.00,meteohub,2013-07-18 13:07:00,
2013-07-18 09:12:00,77.0,74.1,30.08,ESE,106,8.0,9.0,91,0.00,,,0.00,meteohub,2013-07-18 13:12:00,
2013-07-18 09:17:00,77.0,74.1,30.08,East,89,6.0,9.0,91,0.00,,,0.00,meteohub,2013-07-18 13:17:00,
2013-07-18 09:22:00,77.2,74.3,30.08,East,85,5.0,9.0,91,0.00,,,0.00,meteohub,2013-07-18 13:22:00,
2013-07-18 09:27:00,77.2,74.3,30.08,East,89,6.0,9.0,91,0.00,,,0.00,meteohub,2013-07-18 13:27:00,
2013-07-18 09:32:00,77.4,74.1,30.08,SE,137,5.0,8.0,90,0.00,,,0.00,meteohub,2013-07-18 13:32:00,
2013-07-18 09:37:00,77.5,74.3,30.08,East,87,7.0,9.0,90,0.00,,,0.00,meteohub,2013-07-18 13:37:00,
2013-07-18 09:42:00,77.7,74.5,30.08,East,98,0.0,10.0,90,0.00,,,0.00,meteohub,2013-07-18 13:42:00,
2013-07-18 09:47:00,78.3,74.7,30.08,ESE,110,0.0,10.0,89,0.00,,,0.00,meteohub,2013-07-18 13:47:00,
2013-07-18 09:52:00,79.0,74.8,30.08,ESE,108,4.0,9.0,87,0.00,,,0.00,meteohub,2013-07-18 13:52:00,
2013-07-18 09:57:00,79.3,74.5,30.08,SE,135,5.0,11.0,85,0.00,,,0.00,meteohub,2013-07-18 13:57:00,
2013-07-18 10:02:00,79.5,73.9,30.08,SE,129,5.0,11.0,83,0.00,,,0.00,meteohub,2013-07-18 14:02:00,
2013-07-18 10:07:00,80.1,74.5,30.08,SSE,160,6.0,14.0,83,0.00,,,0.00,meteohub,2013-07-18 14:07:00,
2013-07-18 10:12:00,80.2,73.9,30.08,SSE,152,12.0,14.0,81,0.00,,,0.00,meteohub,2013-07-18 14:12:00,
2013-07-18 10:17:00,80.2,73.9,30.08,SSE,149,7.0,12.0,81,0.00,,,0.00,meteohub,2013-07-18 14:17:00,
2013-07-18 10:22:00,80.4,74.1,30.08,SE,136,4.0,13.0,81,0.00,,,0.00,meteohub,2013-07-18 14:22:00,
2013-07-18 10:27:00,81.0,74.7,30.08,East,87,5.0,13.0,81,0.00,,,0.00,meteohub,2013-07-18 14:27:00,
2013-07-18 10:32:00,81.1,74.7,30.08,ESE,113,5.0,13.0,81,0.00,,,0.00,meteohub,2013-07-18 14:32:00,
2013-07-18 10:37:00,81.1,74.7,30.08,ESE,113,10.0,13.0,81,0.00,,,0.00,meteohub,2013-07-18 14:37:00,
2013-07-18 10:42:00,81.1,74.7,30.08,SSE,154,7.0,14.0,81,0.00,,,0.00,meteohub,2013-07-18 14:42:00,
2013-07-18 10:48:00,81.5,74.7,30.07,SE,126,7.0,14.0,80,0.00,,,0.00,meteohub,2013-07-18 14:48:00,
2013-07-18 10:54:00,81.5,74.3,30.07,SE,130,8.0,11.0,79,0.00,,,0.00,meteohub,2013-07-18 14:54:00,
2013-07-18 11:00:00,81.3,74.5,30.07,ESE,112,5.0,14.0,80,0.00,,,0.00,meteohub,2013-07-18 15:00:00,
2013-07-18 11:06:00,81.7,74.5,30.07,SSE,149,9.0,14.0,79,0.00,,,0.00,meteohub,2013-07-18 15:06:00,
2013-07-18 11:12:00,82.0,74.5,30.07,ESE,108,11.0,14.0,78,0.00,,,0.00,meteohub,2013-07-18 15:12:00,
2013-07-18 11:18:00,82.6,74.3,30.07,East,99,13.0,14.0,76,0.00,,,0.00,meteohub,2013-07-18 15:18:00,
2013-07-18 11:24:00,82.6,74.3,30.07,ESE,110,8.0,14.0,76,0.00,,,0.00,meteohub,2013-07-18 15:24:00,
2013-07-18 11:30:00,82.4,74.5,30.08,ESE,115,7.0,14.0,77,0.00,,,0.00,meteohub,2013-07-18 15:30:00,
2013-07-18 11:36:00,82.2,73.9,30.08,ESE,107,5.0,13.0,76,0.00,,,0.00,meteohub,2013-07-18 15:36:00,
2013-07-18 11:42:00,82.2,73.9,30.08,ESE,102,3.0,12.0,76,0.00,,,0.00,meteohub,2013-07-18 15:42:00,
2013-07-18 11:47:00,82.6,74.3,30.08,ESE,122,4.0,12.0,76,0.00,,,0.00,meteohub,2013-07-18 15:47:00,
2013-07-18 11:52:00,82.8,74.8,30.08,East,97,5.0,15.0,77,0.00,,,0.00,meteohub,2013-07-18 15:52:00,
2013-07-18 11:57:00,83.1,74.3,30.07,East,88,7.0,15.0,75,0.00,,,0.00,meteohub,2013-07-18 15:57:00,
2013-07-18 12:02:00,83.5,74.7,30.08,East,101,10.0,15.0,75,0.00,,,0.00,meteohub,2013-07-18 16:02:00,
2013-07-18 12:07:00,82.9,73.8,30.07,East,97,9.0,15.0,74,0.00,,,0.00,meteohub,2013-07-18 16:07:00,
2013-07-18 12:12:00,82.8,74.5,30.07,ESE,103,3.0,14.0,76,0.00,,,0.00,meteohub,2013-07-18 16:12:00,
2013-07-18 12:17:00,82.8,74.5,30.07,SE,141,5.0,14.0,76,0.00,,,0.00,meteohub,2013-07-18 16:17:00,
2013-07-18 12:22:00,83.1,74.8,30.07,ESE,115,5.0,14.0,76,0.00,,,0.00,meteohub,2013-07-18 16:22:00,
2013-07-18 12:27:00,83.3,73.4,30.07,SE,139,9.0,10.0,72,0.00,,,0.00,meteohub,2013-07-18 16:27:00,
2013-07-18 12:32:00,83.8,74.3,30.07,East,99,5.0,11.0,73,0.00,,,0.00,meteohub,2013-07-18 16:32:00,
2013-07-18 12:37:00,84.0,73.9,30.06,SSE,148,6.0,11.0,72,0.00,,,0.00,meteohub,2013-07-18 16:37:00,
2013-07-18 12:42:00,84.2,73.4,30.07,SSE,150,3.0,11.0,70,0.00,,,0.00,meteohub,2013-07-18 16:42:00,
2013-07-18 12:47:00,84.4,73.0,30.06,SE,141,4.0,11.0,69,0.00,,,0.00,meteohub,2013-07-18 16:47:00,
2013-07-18 12:52:00,84.4,73.9,30.06,East,92,3.0,9.0,71,0.00,,,0.00,meteohub,2013-07-18 16:52:00,
2013-07-18 12:57:00,84.6,73.8,30.06,South,177,7.0,9.0,70,0.00,,,0.00,meteohub,2013-07-18 16:57:00,
2013-07-18 13:02:00,84.6,73.8,30.06,SE,139,1.0,9.0,70,0.00,,,0.00,meteohub,2013-07-18 17:02:00,
2013-07-18 13:07:00,84.4,74.3,30.06,SSE,150,6.0,10.0,72,0.00,,,0.00,meteohub,2013-07-18 17:07:00,
2013-07-18 13:12:00,84.6,74.5,30.06,East,83,8.0,10.0,72,0.00,,,0.00,meteohub,2013-07-18 17:12:00,
2013-07-18 13:17:00,84.6,74.1,30.06,East,99,6.0,10.0,71,0.00,,,0.00,meteohub,2013-07-18 17:17:00,
2013-07-18 13:22:00,84.7,74.3,30.06,ESE,112,2.0,9.0,71,0.00,,,0.00,meteohub,2013-07-18 17:22:00,
2013-07-18 13:27:00,85.3,74.3,30.06,SSE,158,4.0,9.0,70,0.00,,,0.00,meteohub,2013-07-18 17:27:00,
2013-07-18 13:32:00,84.7,74.3,30.06,ESE,111,5.0,11.0,71,0.00,,,0.00,meteohub,2013-07-18 17:32:00,
2013-07-18 13:37:00,84.7,74.3,30.06,East,97,5.0,14.0,71,0.00,,,0.00,meteohub,2013-07-18 17:37:00,
2013-07-18 13:42:00,84.6,73.2,30.05,SSE,154,4.0,14.0,69,0.00,,,0.00,meteohub,2013-07-18 17:42:00,
2013-07-18 13:47:00,84.7,73.4,30.05,ESE,102,10.0,14.0,69,0.00,,,0.00,meteohub,2013-07-18 17:47:00,
2013-07-18 13:52:00,85.3,73.6,30.05,SSE,147,5.0,12.0,68,0.00,,,0.00,meteohub,2013-07-18 17:52:00,
2013-07-18 13:57:00,85.8,73.2,30.05,SE,139,4.0,12.0,66,0.00,,,0.00,meteohub,2013-07-18 17:57:00,
2013-07-18 14:02:00,86.0,72.9,30.04,ESE,104,4.0,12.0,65,0.00,,,0.00,meteohub,2013-07-18 18:02:00,
2013-07-18 14:07:00,86.2,73.0,30.04,SSE,154,4.0,10.0,65,0.00,,,0.00,meteohub,2013-07-18 18:07:00,
2013-07-18 14:12:00,86.2,73.0,30.04,South,170,0.0,10.0,65,0.00,,,0.00,meteohub,2013-07-18 18:12:00,
2013-07-18 14:17:00,85.8,72.1,30.04,ESE,114,4.0,10.0,64,0.00,,,0.00,meteohub,2013-07-18 18:17:00,
2013-07-18 14:22:00,85.6,72.5,30.04,SE,132,7.0,10.0,65,0.00,,,0.00,meteohub,2013-07-18 18:22:00,
2013-07-18 14:27:00,85.6,72.5,30.04,ESE,115,7.0,9.0,65,0.00,,,0.00,meteohub,2013-07-18 18:27:00,
2013-07-18 14:32:00,85.5,72.3,30.04,SSE,151,0.0,11.0,65,0.00,,,0.00,meteohub,2013-07-18 18:32:00,
2013-07-18 14:37:00,85.6,72.1,30.04,SE,144,8.0,11.0,64,0.00,,,0.00,meteohub,2013-07-18 18:37:00,
2013-07-18 14:42:00,85.6,72.5,30.04,SE,144,4.0,11.0,65,0.00,,,0.00,meteohub,2013-07-18 18:42:00,
2013-07-18 14:47:00,85.8,71.8,30.04,SE,145,5.0,9.0,63,0.00,,,0.00,meteohub,2013-07-18 18:47:00,
2013-07-18 14:52:00,86.2,72.1,30.04,SE,144,7.0,9.0,63,0.00,,,0.00,meteohub,2013-07-18 18:52:00,
2013-07-18 14:57:00,86.5,72.0,30.04,SSE,158,0.0,10.0,62,0.00,,,0.00,meteohub,2013-07-18 18:57:00,
2013-07-18 15:02:00,87.4,72.9,30.03,SE,145,0.0,10.0,62,0.00,,,0.00,meteohub,2013-07-18 19:02:00,
2013-07-18 15:07:00,87.3,70.7,30.03,ESE,123,3.0,8.0,58,0.00,,,0.00,meteohub,2013-07-18 19:07:00,
2013-07-18 15:12:00,87.4,71.8,30.03,SSE,148,9.0,10.0,60,0.00,,,0.00,meteohub,2013-07-18 19:12:00,
2013-07-18 15:17:00,87.1,72.0,30.02,SE,139,5.0,10.0,61,0.00,,,0.00,meteohub,2013-07-18 19:17:00,
2013-07-18 15:22:00,87.3,72.7,30.02,SSE,149,0.0,9.0,62,0.00,,,0.00,meteohub,2013-07-18 19:22:00,
2013-07-18 15:27:00,87.4,72.9,30.02,East,98,7.0,9.0,62,0.00,,,0.00,meteohub,2013-07-18 19:27:00,
2013-07-18 15:32:00,87.4,72.3,30.01,SSE,148,7.0,9.0,61,0.00,,,0.00,meteohub,2013-07-18 19:32:00,
2013-07-18 15:37:00,87.1,72.5,30.01,ESE,111,0.0,9.0,62,0.00,,,0.00,meteohub,2013-07-18 19:37:00,
2013-07-18 15:42:00,88.0,72.9,30.01,SSE,147,4.0,9.0,61,0.00,,,0.00,meteohub,2013-07-18 19:42:00,
2013-07-18 15:47:00,88.2,73.4,30.01,SSE,149,5.0,9.0,62,0.00,,,0.00,meteohub,2013-07-18 19:47:00,
2013-07-18 15:52:00,88.3,73.2,30.00,SE,135,8.0,8.0,61,0.00,,,0.00,meteohub,2013-07-18 19:52:00,
2013-07-18 15:57:00,88.0,72.9,30.00,East,89,3.0,10.0,61,0.00,,,0.00,meteohub,2013-07-18 19:57:00,
2013-07-18 16:02:00,88.2,73.4,30.00,ESE,104,2.0,10.0,62,0.00,,,0.00,meteohub,2013-07-18 20:02:00,
2013-07-18 16:07:00,88.5,73.4,30.00,SSE,147,4.0,10.0,61,0.00,,,0.00,meteohub,2013-07-18 20:07:00,
2013-07-18 16:12:00,88.5,73.4,30.00,East,101,5.0,7.0,61,0.00,,,0.00,meteohub,2013-07-18 20:12:00,
2013-07-18 16:17:00,88.9,73.2,30.00,SSE,159,7.0,8.0,60,0.00,,,0.00,meteohub,2013-07-18 20:17:00,
2013-07-18 16:22:00,88.3,73.2,30.00,ESE,117,0.0,8.0,61,0.00,,,0.00,meteohub,2013-07-18 20:22:00,
2013-07-18 16:29:00,88.0,72.9,30.00,SE,129,2.0,8.0,61,0.00,,,0.00,meteohub,2013-07-18 20:29:00,
2013-07-18 16:35:00,88.2,73.4,30.00,SE,145,0.0,8.0,62,0.00,,,0.00,meteohub,2013-07-18 20:35:00,
2013-07-18 16:41:00,88.5,73.4,30.00,SE,130,7.0,8.0,61,0.00,,,0.00,meteohub,2013-07-18 20:41:00,
2013-07-18 16:47:00,88.0,73.4,30.00,ESE,104,3.0,11.0,62,0.00,,,0.00,meteohub,2013-07-18 20:47:00,
2013-07-18 16:52:00,87.6,73.0,30.01,ESE,116,8.0,11.0,62,0.00,,,0.00,meteohub,2013-07-18 20:52:00,
2013-07-18 16:57:00,87.1,73.4,30.01,SSE,160,11.0,11.0,64,0.00,,,0.00,meteohub,2013-07-18 20:57:00,
2013-07-18 17:02:00,84.0,72.0,30.01,SSE,156,17.0,17.0,67,0.00,,,0.00,meteohub,2013-07-18 21:02:00,
2013-07-18 17:07:00,81.7,72.1,30.01,SSE,155,7.0,19.0,73,0.00,,,0.00,meteohub,2013-07-18 21:07:00,
2013-07-18 17:12:00,80.4,72.9,30.02,SSE,168,7.0,19.0,78,0.00,,,0.00,meteohub,2013-07-18 21:12:00,
2013-07-18 17:17:00,80.2,73.0,30.02,SSE,157,7.0,19.0,79,0.00,,,0.00,meteohub,2013-07-18 21:17:00,
2013-07-18 17:22:00,79.5,73.2,30.01,SSE,164,1.0,18.0,81,0.00,,,0.00,meteohub,2013-07-18 21:22:00,
2013-07-18 17:27:00,79.5,73.2,30.02,South,171,4.0,18.0,81,0.00,,,0.00,meteohub,2013-07-18 21:27:00,
2013-07-18 17:32:00,79.0,73.0,30.01,South,190,0.0,14.0,82,0.00,,,0.00,meteohub,2013-07-18 21:32:00,
2013-07-18 17:37:00,78.8,73.2,30.01,SSE,158,0.0,10.0,83,0.00,,,0.00,meteohub,2013-07-18 21:37:00,
2013-07-18 17:42:00,78.4,72.9,30.01,SW,220,0.0,9.0,83,0.00,,,0.00,meteohub,2013-07-18 21:42:00,
2013-07-18 17:47:00,78.6,73.0,30.00,SW,235,3.0,7.0,83,0.00,,,0.00,meteohub,2013-07-18 21:47:00,
2013-07-18 17:52:00,78.8,72.5,30.00,SSE,165,4.0,9.0,81,0.00,,,0.00,meteohub,2013-07-18 21:52:00,
2013-07-18 17:57:00,79.0,72.7,30.00,South,173,1.0,9.0,81,0.00,,,0.00,meteohub,2013-07-18 21:57:00,
2013-07-18 18:02:00,79.0,72.3,30.00,South,170,5.0,6.0,80,0.00,,,0.00,meteohub,2013-07-18 22:02:00,
2013-07-18 18:07:00,78.3,72.0,30.00,SSE,166,2.0,9.0,81,0.00,,,0.00,meteohub,2013-07-18 22:07:00,
2013-07-18 18:12:00,77.7,72.1,30.00,SSE,149,3.0,9.0,83,0.00,,,0.00,meteohub,2013-07-18 22:12:00,
2013-07-18 18:17:00,77.4,72.1,30.01,SSE,166,4.0,9.0,84,0.00,,,0.00,meteohub,2013-07-18 22:17:00,
2013-07-18 18:22:00,77.2,72.3,30.01,SSE,150,2.0,6.0,85,0.00,,,0.00,meteohub,2013-07-18 22:22:00,
2013-07-18 18:27:00,77.2,72.7,30.01,SSE,150,0.0,6.0,86,0.00,,,0.00,meteohub,2013-07-18 22:27:00,
2013-07-18 18:32:00,77.0,72.5,30.01,SSE,159,3.0,5.0,86,0.00,,,0.00,meteohub,2013-07-18 22:32:00,
2013-07-18 18:37:00,76.8,72.3,30.01,SSE,152,0.0,8.0,86,0.00,,,0.00,meteohub,2013-07-18 22:37:00,
2013-07-18 18:42:00,76.6,72.1,30.01,SSE,152,0.0,8.0,86,0.00,,,0.00,meteohub,2013-07-18 22:42:00,
2013-07-18 18:47:00,76.8,72.7,30.01,SSE,152,0.0,7.0,87,0.00,,,0.00,meteohub,2013-07-18 22:47:00,
2013-07-18 18:52:00,76.6,72.1,30.01,SSE,152,3.0,5.0,86,0.00,,,0.00,meteohub,2013-07-18 22:52:00,
2013-07-18 18:57:00,76.6,72.5,30.01,SSE,152,5.0,6.0,87,0.00,,,0.00,meteohub,2013-07-18 22:57:00,
2013-07-18 19:02:00,76.6,72.5,30.01,SSE,152,3.0,8.0,87,0.00,,,0.00,meteohub,2013-07-18 23:02:00,
2013-07-18 19:07:00,76.6,72.9,30.01,SE,145,4.0,8.0,88,0.00,,,0.00,meteohub,2013-07-18 23:07:00,
2013-07-18 19:12:00,76.5,73.0,30.02,SE,143,4.0,10.0,89,0.00,,,0.00,meteohub,2013-07-18 23:12:00,
2013-07-18 19:17:00,76.5,73.0,30.02,SSE,155,5.0,10.0,89,0.00,,,0.00,meteohub,2013-07-18 23:17:00,
2013-07-18 19:22:00,76.6,73.4,30.02,SSE,151,5.0,9.0,90,0.00,,,0.00,meteohub,2013-07-18 23:22:00,
2013-07-18 19:27:00,76.6,73.2,30.02,SE,141,6.0,10.0,89,0.00,,,0.00,meteohub,2013-07-18 23:27:00,
2013-07-18 19:32:00,76.6,73.2,30.02,SSE,150,5.0,10.0,89,0.00,,,0.00,meteohub,2013-07-18 23:32:00,
2013-07-18 19:37:00,76.6,72.9,30.01,South,169,4.0,11.0,88,0.00,,,0.00,meteohub,2013-07-18 23:37:00,
2013-07-18 19:42:00,76.6,73.2,30.01,ESE,114,5.0,11.0,89,0.00,,,0.00,meteohub,2013-07-18 23:42:00,
2013-07-18 19:47:00,76.5,73.0,30.01,SSE,162,5.0,11.0,89,0.00,,,0.00,meteohub,2013-07-18 23:47:00,
2013-07-18 19:52:00,76.5,73.0,30.01,SSE,147,3.0,10.0,89,0.00,,,0.00,meteohub,2013-07-18 23:52:00,
2013-07-18 19:57:00,76.5,73.0,30.01,SSE,155,5.0,9.0,89,0.00,,,0.00,meteohub,2013-07-18 23:57:00,
2013-07-18 20:02:00,76.3,73.0,30.02,SSE,159,5.0,9.0,90,0.00,,,0.00,meteohub,2013-07-19 00:02:00,
2013-07-18 20:07:00,75.9,72.9,30.02,SE,143,1.0,8.0,90,0.00,,,0.00,meteohub,2013-07-19 00:07:00,
2013-07-18 20:12:00,75.9,73.0,30.02,SE,144,0.0,8.0,91,0.00,,,0.00,meteohub,2013-07-19 00:12:00,
2013-07-18 20:17:00,75.7,72.9,30.02,SSE,168,1.0,8.0,91,0.00,,,0.00,meteohub,2013-07-19 00:17:00,
2013-07-18 20:22:00,75.7,73.2,30.02,SSE,167,4.0,7.0,92,0.00,,,0.00,meteohub,2013-07-19 00:22:00,
2013-07-18 20:27:00,75.6,73.0,30.02,SSE,152,0.0,7.0,92,0.00,,,0.00,meteohub,2013-07-19 00:27:00,
2013-07-18 20:32:00,75.4,72.9,30.03,SSE,152,2.0,7.0,92,0.00,,,0.00,meteohub,2013-07-19 00:32:00,
2013-07-18 20:37:00,75.4,72.9,30.03,SSE,156,4.0,7.0,92,0.00,,,0.00,meteohub,2013-07-19 00:37:00,
2013-07-18 20:43:00,75.0,72.5,30.03,SSE,158,4.0,7.0,92,0.00,,,0.00,meteohub,2013-07-19 00:43:00,
2013-07-18 20:49:00,75.0,72.5,30.03,SSE,150,2.0,8.0,92,0.00,,,0.00,meteohub,2013-07-19 00:49:00,
2013-07-18 20:55:00,75.0,72.5,30.03,ESE,122,3.0,8.0,92,0.00,,,0.00,meteohub,2013-07-19 00:55:00,
2013-07-18 21:01:00,75.2,72.7,30.03,ESE,115,0.0,7.0,92,0.00,,,0.00,meteohub,2013-07-19 01:01:00,
2013-07-18 21:07:00,75.2,72.7,30.03,SE,125,0.0,7.0,92,0.00,,,0.00,meteohub,2013-07-19 01:07:00,
2013-07-18 21:12:00,75.2,73.0,30.03,ESE,120,4.0,6.0,93,0.00,,,0.00,meteohub,2013-07-19 01:12:00,
2013-07-18 21:17:00,75.2,73.0,30.03,ESE,104,4.0,5.0,93,0.00,,,0.00,meteohub,2013-07-19 01:17:00,
2013-07-18 21:22:00,75.0,72.9,30.04,East,100,0.0,6.0,93,0.00,,,0.00,meteohub,2013-07-19 01:22:00,
2013-07-18 21:27:00,75.2,73.4,30.04,East,100,3.0,6.0,94,0.00,,,0.00,meteohub,2013-07-19 01:27:00,
2013-07-18 21:32:00,75.2,73.4,30.04,East,100,0.0,6.0,94,0.00,,,0.00,meteohub,2013-07-19 01:32:00,
2013-07-18 21:37:00,75.0,73.2,30.04,East,100,3.0,6.0,94,0.00,,,0.00,meteohub,2013-07-19 01:37:00,
2013-07-18 21:42:00,75.0,73.2,30.04,ESE,102,3.0,6.0,94,0.00,,,0.00,meteohub,2013-07-19 01:42:00,
2013-07-18 21:47:00,75.2,73.0,30.04,ESE,102,2.0,6.0,93,0.00,,,0.00,meteohub,2013-07-19 01:47:00,
2013-07-18 21:52:00,75.2,73.0,30.04,ESE,112,4.0,6.0,93,0.00,,,0.00,meteohub,2013-07-19 01:52:00,
2013-07-18 21:57:00,75.4,73.2,30.04,ESE,122,0.0,5.0,93,0.00,,,0.00,meteohub,2013-07-19 01:57:00,
2013-07-18 22:02:00,75.4,73.2,30.04,SE,126,3.0,5.0,93,0.00,,,0.00,meteohub,2013-07-19 02:02:00,